WA7SB-7 Weather Reports


Display with metric or nautical units.
time (UTC)temp
F
wind
direction
speed
MPH
gust
MPH
rain 1hr
in
rain 24hr
in
rain mn
in
humidity
%
barometer
mb
20260901045029 59 32 0.0 1.0 0.00 0.00 0.00 91 1012.3
20260901044928 59 31 0.0 1.0 0.00 0.00 0.00 91 1012.3
20260901044529 59 31 0.0 1.0 0.00 0.00 0.00 91 1012.3
20260901044430 59 31 0.0 1.0 0.00 0.00 0.00 91 1012.3
20260901044014 59 65 0.0 2.0 0.00 0.00 0.00 91 1012.3
20260901043916 59 66 0.0 2.0 0.00 0.00 0.00 91 1012.3
20260901043522 59 303 0.0 2.0 0.00 0.00 0.00 91 1012.3
20260901043423 59 262 0.0 1.0 0.00 0.00 0.00 91 1012.3
20260901043027 59 263 0.0 1.0 0.00 0.00 0.00 91 1012.3
20260901042928 59 263 0.0 0.0 0.00 0.00 0.00 91 1012.3
20260901042531 59 263 0.0 1.0 0.00 0.00 0.00 91 1012.2
20260901042412 59 263 0.0 1.0 0.00 0.00 0.00 91 1012.3
20260901042015 59 262 0.0 1.0 0.00 0.00 0.00 91 1012.2
20260901041915 59 262 0.0 1.0 0.00 0.00 0.00 91 1012.2
20260901041516 59 263 0.0 1.0 0.00 0.00 0.00 91 1012.1
20260901041415 59 263 0.0 1.0 0.00 0.00 0.00 91 1012.2
20260901041015 59 263 0.0 1.0 0.00 0.00 0.00 91 1012.1
20260901040916 59 263 0.0 1.0 0.00 0.00 0.00 91 1012.2
20260901040522 59 262 0.0 2.0 0.00 0.00 0.00 91 1012.2
20260901040421 59 322 0.0 2.0 0.00 0.00 0.00 91 1012.2
20260901040019 59 76 1.0 3.0 0.00 0.00 0.00 91 1012.1
20260901035922 59 78 0.0 3.0 0.00 0.00 0.00 91 1012.1
20260901035524 59 112 0.0 3.0 0.00 0.00 0.00 91 1012.1
20260901035425 59 210 0.0 3.0 0.00 0.00 0.00 91 1012.1
20260901035021 59 85 0.0 3.0 0.00 0.00 0.00 91 1011.9
20260901034928 59 49 0.0 3.0 0.00 0.00 0.00 91 1011.9
20260901034527 59 15 0.0 3.0 0.00 0.00 0.00 91 1012.0
20260901034433 59 15 0.0 3.0 0.00 0.00 0.00 91 1012.0
20260901034032 58 238 1.0 3.0 0.00 0.00 0.00 90 1011.9
20260901033918 59 72 1.0 3.0 0.00 0.00 0.00 90 1012.0
20260901033515 59 350 0.0 2.0 0.00 0.00 0.00 90 1011.9
20260901033413 58 318 1.0 2.0 0.00 0.00 0.00 90 1011.9
20260901033018 59 260 0.0 2.0 0.00 0.00 0.00 90 1011.9
20260901032920 58 260 0.0 2.0 0.00 0.00 0.00 90 1011.9
20260901032523 58 290 0.0 1.0 0.00 0.00 0.00 90 1011.9
20260901032423 58 290 0.0 1.0 0.00 0.00 0.00 90 1011.8
20260901032023 58 76 0.0 1.0 0.00 0.00 0.00 90 1011.7
20260901031924 58 76 0.0 1.0 0.00 0.00 0.00 90 1011.8
20260901031524 58 228 0.0 1.0 0.00 0.00 0.00 91 1011.7
20260901031424 58 227 0.0 2.0 0.00 0.00 0.00 90 1011.7
20260901031025 58 105 0.0 2.0 0.00 0.00 0.00 90 1011.7
20260901030926 58 105 0.0 2.0 0.00 0.00 0.00 90 1011.7
20260901030529 58 108 1.0 2.0 0.00 0.00 0.00 90 1011.7
20260901030427 58 300 1.0 2.0 0.00 0.00 0.00 90 1011.7
20260901030014 58 136 0.0 2.0 0.00 0.00 0.00 90 1011.6
20260901025933 58 233 0.0 2.0 0.00 0.00 0.00 90 1011.6
20260901025533 58 218 0.0 2.0 0.00 0.00 0.00 90 1011.6
20260901025414 58 218 0.0 2.0 0.00 0.00 0.00 90 1011.6
20260901025014 58 297 1.0 2.0 0.00 0.00 0.00 90 1011.6
20260901024914 58 280 1.0 2.0 0.00 0.00 0.00 90 1011.5
20260901024514 58 65 1.0 2.0 0.00 0.00 0.00 90 1011.5
20260901024416 58 87 0.0 2.0 0.00 0.00 0.00 90 1011.6
20260901024014 58 79 0.0 1.0 0.00 0.00 0.00 90 1011.6
20260901023918 58 80 0.0 1.0 0.00 0.00 0.00 90 1011.6
20260901023516 58 328 0.0 2.0 0.00 0.00 0.00 90 1011.6
20260901023419 58 285 0.0 2.0 0.00 0.00 0.00 90 1011.6
20260901023016 58 188 1.0 3.0 0.00 0.00 0.00 90 1011.7
20260901022915 58 46 0.0 3.0 0.00 0.00 0.00 90 1011.6
20260901022518 58 276 1.0 3.0 0.00 0.00 0.00 90 1011.7
20260901022419 58 338 1.0 3.0 0.00 0.00 0.00 90 1011.7
20260901022023 58 291 1.0 3.0 0.00 0.00 0.00 90 1011.7
20260901021923 58 233 1.0 3.0 0.00 0.00 0.00 90 1011.7
20260901021525 58 74 1.0 3.0 0.00 0.00 0.00 90 1011.6
20260901021425 58 51 1.0 3.0 0.00 0.00 0.00 90 1011.6
20260901021025 58 268 0.0 3.0 0.00 0.00 0.00 90 1011.6
20260901020924 58 252 1.0 3.0 0.00 0.00 0.00 89 1011.7
20260901020526 58 139 0.0 2.0 0.00 0.00 0.00 89 1011.7
20260901020424 58 238 1.0 2.0 0.00 0.00 0.00 89 1011.6
20260901020033 58 335 0.0 2.0 0.00 0.00 0.00 89 1011.8
20260901015933 58 357 1.0 2.0 0.00 0.00 0.00 89 1011.8
20260901015533 59 268 1.0 2.0 0.00 0.00 0.00 89 1011.7
20260901015432 59 262 0.0 2.0 0.00 0.00 0.00 89 1011.8
20260901015033 58 78 1.0 3.0 0.00 0.00 0.00 89 1011.7
20260901014932 58 231 1.0 3.0 0.00 0.00 0.00 89 1011.7
20260901014532 58 4 1.0 3.0 0.00 0.00 0.00 89 1011.7
20260901014415 58 187 1.0 3.0 0.00 0.00 0.00 89 1011.6
20260901014019 58 290 1.0 4.0 0.00 0.00 0.00 89 1011.5
20260901013919 58 238 0.0 4.0 0.00 0.00 0.00 89 1011.5
20260901013517 58 128 1.0 4.0 0.00 0.00 0.00 88 1011.6
20260901013420 58 248 1.0 4.0 0.00 0.00 0.00 88 1011.6
20260901013017 58 304 1.0 5.0 0.00 0.00 0.00 88 1011.6
20260901012920 58 304 1.0 5.0 0.00 0.00 0.00 88 1011.6
20260901012519 58 313 2.0 6.0 0.00 0.00 0.00 88 1011.5
20260901012421 59 20 2.0 6.0 0.00 0.00 0.00 88 1011.5
20260901012023 59 297 1.0 6.0 0.00 0.00 0.00 87 1011.4
20260901011923 59 276 1.0 6.0 0.00 0.00 0.00 87 1011.4
20260901011524 59 293 2.0 6.0 0.00 0.00 0.00 87 1011.5
20260901011424 59 249 2.0 6.0 0.00 0.00 0.00 87 1011.4
20260901011025 60 162 1.0 3.0 0.00 0.00 0.00 87 1011.3
20260901010924 60 79 1.0 5.0 0.00 0.00 0.00 87 1011.4
20260901010527 60 94 1.0 5.0 0.00 0.00 0.00 87 1011.4
20260901010425 60 281 0.0 5.0 0.00 0.00 0.00 87 1011.4
20260901010031 60 303 2.0 4.0 0.00 0.00 0.00 87 1011.4
20260901005931 60 85 1.0 4.0 0.00 0.00 0.00 87 1011.4
20260901005531 60 74 1.0 4.0 0.00 0.00 0.00 87 1011.4
20260901005412 60 310 1.0 4.0 0.00 0.00 0.00 87 1011.5
20260901005013 60 68 1.0 6.0 0.00 0.00 0.00 87 1011.4
20260901004916 60 96 2.0 6.0 0.00 0.00 0.00 87 1011.4
20260901004518 60 266 1.0 6.0 0.00 0.00 0.00 86 1011.2
20260901004418 60 275 1.0 6.0 0.00 0.00 0.00 86 1011.3
20260901004020 60 55 0.0 3.0 0.00 0.00 0.00 86 1011.2
20260901003920 60 352 1.0 3.0 0.00 0.00 0.00 86 1011.2
20260901003519 60 338 0.0 3.0 0.00 0.00 0.00 87 1011.2
20260901003422 60 330 0.0 3.0 0.00 0.00 0.00 87 1011.2
20260901003019 60 75 1.0 5.0 0.00 0.00 0.00 86 1011.3
20260901002922 60 74 1.0 5.0 0.00 0.00 0.00 86 1011.3
20260901002517 60 236 1.0 5.0 0.00 0.00 0.00 86 1011.4
20260901002416 60 98 1.0 5.0 0.00 0.00 0.00 86 1011.4
20260901002015 61 235 2.0 3.0 0.00 0.00 0.00 85 1011.4
20260901001915 61 300 2.0 3.0 0.00 0.00 0.00 85 1011.4
20260901001519 61 337 0.0 3.0 0.00 0.00 0.00 85 1011.4
20260901001419 61 333 1.0 3.0 0.00 0.00 0.00 85 1011.4
20260901001020 61 2 1.0 3.0 0.00 0.00 0.00 85 1011.5
20260901000918 61 6 1.0 3.0 0.00 0.00 0.00 85 1011.5
20260901000522 61 229 0.0 3.0 0.00 0.00 0.00 85 1011.5
20260901000422 61 230 1.0 3.0 0.00 0.00 0.00 85 1011.5
20260901000032 61 140 1.0 3.0 0.00 0.00 0.00 84 1011.5
20260831235912 61 260 1.0 3.0 0.00 0.00 0.00 84 1011.6
20260831235514 61 232 1.0 3.0 0.00 0.00 0.00 84 1011.6
20260831235415 61 288 1.0 3.0 0.00 0.00 0.00 84 1011.5
20260831235016 61 291 1.0 3.0 0.00 0.00 0.00 84 1011.6
20260831234918 61 78 1.0 3.0 0.00 0.00 0.00 84 1011.6
20260831234519 61 63 1.0 5.0 0.00 0.00 0.00 84 1011.6
20260831234418 62 123 1.0 5.0 0.00 0.00 0.00 84 1011.6
20260831234019 62 119 2.0 5.0 0.00 0.00 0.00 83 1011.6
20260831233919 62 309 2.0 5.0 0.00 0.00 0.00 83 1011.7
20260831233522 62 118 1.0 4.0 0.00 0.00 0.00 83 1011.6
20260831233419 62 13 1.0 4.0 0.00 0.00 0.00 84 1011.6
20260831233014 62 129 1.0 5.0 0.00 0.00 0.00 83 1011.6
20260831232919 62 217 1.0 5.0 0.00 0.00 0.00 83 1011.6
20260831232517 62 63 1.0 5.0 0.00 0.00 0.00 84 1011.7
20260831232422 62 63 2.0 5.0 0.00 0.00 0.00 83 1011.7
20260831232019 62 105 1.0 5.0 0.00 0.00 0.00 84 1011.6
20260831231918 62 16 1.0 5.0 0.00 0.00 0.00 84 1011.6
20260831231518 61 297 1.0 5.0 0.00 0.00 0.00 84 1011.6
20260831231418 61 77 1.0 5.0 0.00 0.00 0.00 84 1011.6
20260831231020 62 88 1.0 3.0 0.00 0.00 0.00 83 1011.7
20260831230919 62 79 1.0 3.0 0.00 0.00 0.00 83 1011.6
20260831230522 62 282 1.0 3.0 0.00 0.00 0.00 83 1011.7
20260831230420 62 167 1.0 3.0 0.00 0.00 0.00 83 1011.7
20260831230032 62 290 1.0 5.0 0.00 0.00 0.00 82 1011.7
20260831225933 62 309 1.0 5.0 0.00 0.00 0.00 83 1011.7
20260831225533 62 246 2.0 9.0 0.00 0.00 0.00 82 1011.7
20260831225413 62 306 1.0 9.0 0.00 0.00 0.00 84 1011.7
20260831225015 62 107 1.0 9.0 0.00 0.00 0.00 83 1011.7
20260831224914 62 106 2.0 9.0 0.00 0.00 0.00 83 1011.7
20260831224516 62 318 1.0 8.0 0.00 0.00 0.00 83 1011.8
20260831224416 62 340 1.0 8.0 0.00 0.00 0.00 83 1011.9
20260831224017 62 335 2.0 5.0 0.00 0.00 0.00 83 1011.8
20260831223915 62 260 3.0 5.0 0.00 0.00 0.00 82 1011.8
20260831223517 62 348 1.0 5.0 0.00 0.00 0.00 83 1011.7
20260831223416 62 133 1.0 5.0 0.00 0.00 0.00 83 1011.7
20260831223017 62 309 2.0 5.0 0.00 0.00 0.00 83 1011.7
20260831222936 62 311 2.0 5.0 0.00 0.00 0.00 83 1011.7
20260831222533 62 295 2.0 5.0 0.00 0.00 0.00 82 1011.7
20260831222419 62 18 1.0 5.0 0.00 0.00 0.00 82 1011.8
20260831222019 62 265 1.0 6.0 0.00 0.00 0.00 82 1011.8
20260831221924 62 307 1.0 6.0 0.00 0.00 0.00 82 1011.8
20260831221520 63 131 1.0 6.0 0.00 0.00 0.00 81 1011.7
20260831221419 63 338 2.0 6.0 0.00 0.00 0.00 80 1011.7
20260831221020 63 63 2.0 3.0 0.00 0.00 0.00 80 1011.8
20260831220922 63 9 1.0 3.0 0.00 0.00 0.00 80 1011.7
20260831220528 63 39 2.0 5.0 0.00 0.00 0.00 80 1011.7
20260831220428 63 295 1.0 5.0 0.00 0.00 0.00 81 1011.8
20260831220023 63 280 2.0 5.0 0.00 0.00 0.00 81 1011.8
20260831215924 63 228 2.0 5.0 0.00 0.00 0.00 81 1011.8
20260831215526 63 96 2.0 7.0 0.00 0.00 0.00 81 1011.7
20260831215428 63 17 2.0 7.0 0.00 0.00 0.00 81 1011.7
20260831215029 63 299 1.0 8.0 0.00 0.00 0.00 80 1011.8
20260831214930 63 168 2.0 8.0 0.00 0.00 0.00 81 1011.8
20260831214530 64 79 2.0 8.0 0.00 0.00 0.00 80 1011.7
20260831214431 64 309 2.0 8.0 0.00 0.00 0.00 81 1011.8
20260831214013 65 295 2.0 6.0 0.00 0.00 0.00 79 1011.7
20260831213915 65 331 2.0 5.0 0.00 0.00 0.00 80 1011.7
20260831213517 65 293 1.0 6.0 0.00 0.00 0.00 80 1011.6
20260831213416 65 97 1.0 6.0 0.00 0.00 0.00 80 1011.6
20260831213017 66 295 3.0 6.0 0.00 0.00 0.00 79 1011.6
20260831212919 66 264 3.0 6.0 0.00 0.00 0.00 79 1011.6
20260831212520 66 261 1.0 4.0 0.00 0.00 0.00 80 1011.5
20260831212423 66 56 1.0 4.0 0.00 0.00 0.00 80 1011.5
20260831212020 66 331 1.0 4.0 0.00 0.00 0.00 80 1011.4
20260831211926 66 99 2.0 4.0 0.00 0.00 0.00 80 1011.5
20260831211525 65 214 1.0 4.0 0.00 0.00 0.00 81 1011.5
20260831211430 65 7 1.0 4.0 0.00 0.00 0.00 80 1011.6
20260831211029 66 146 2.0 4.0 0.00 0.00 0.00 78 1011.4
20260831210928 66 302 2.0 4.0 0.00 0.00 0.00 78 1011.4
20260831210530 66 189 1.0 3.0 0.00 0.00 0.00 79 1011.4
20260831210429 67 219 1.0 3.0 0.00 0.00 0.00 78 1011.4
20260831210022 67 358 2.0 3.0 0.00 0.00 0.00 78 1011.4
20260831205922 67 326 1.0 3.0 0.00 0.00 0.00 79 1011.4
20260831205524 66 7 1.0 4.0 0.00 0.00 0.00 80 1011.4
20260831205425 66 85 1.0 4.0 0.00 0.00 0.00 81 1011.4
20260831205028 65 262 1.0 4.0 0.00 0.00 0.00 80 1011.4
20260831204929 65 193 1.0 4.0 0.00 0.00 0.00 80 1011.4
20260831204529 66 89 1.0 3.0 0.00 0.00 0.00 79 1011.5
20260831204412 66 241 1.0 3.0 0.00 0.00 0.00 79 1011.5
20260831204015 67 276 1.0 3.0 0.00 0.00 0.00 78 1011.6
20260831203916 66 226 1.0 3.0 0.00 0.00 0.00 78 1011.6
20260831203519 66 275 1.0 4.0 0.00 0.00 0.00 80 1011.6
20260831203419 66 50 1.0 4.0 0.00 0.00 0.00 79 1011.5
20260831203020 66 224 1.0 4.0 0.00 0.00 0.00 79 1011.6
20260831202920 66 359 2.0 4.0 0.00 0.00 0.00 78 1011.6
20260831202521 66 296 1.0 4.0 0.00 0.00 0.00 79 1011.6
20260831202421 65 132 1.0 4.0 0.00 0.00 0.00 79 1011.6
20260831202024 65 276 1.0 3.0 0.00 0.00 0.00 79 1011.6
20260831201926 65 285 1.0 3.0 0.00 0.00 0.00 80 1011.7
20260831201528 65 298 1.0 3.0 0.00 0.00 0.00 79 1011.6
20260831201429 65 298 1.0 3.0 0.00 0.00 0.00 78 1011.6
20260831201026 65 129 1.0 3.0 0.00 0.00 0.00 78 1011.6
20260831200931 66 288 1.0 3.0 0.00 0.00 0.00 77 1011.5
20260831200530 67 129 1.0 2.0 0.00 0.00 0.00 76 1011.5
20260831200412 67 77 1.0 3.0 0.00 0.00 0.00 76 1011.6
20260831200024 66 305 1.0 3.0 0.00 0.00 0.00 78 1011.6
20260831195928 66 130 0.0 3.0 0.00 0.00 0.00 78 1011.6
20260831195530 65 182 1.0 4.0 0.00 0.00 0.00 77 1011.7
20260831195430 65 271 1.0 4.0 0.00 0.00 0.00 77 1011.7
20260831195031 65 319 1.0 4.0 0.00 0.00 0.00 76 1011.7
20260831194930 66 269 1.0 4.0 0.00 0.00 0.00 76 1011.7
20260831194516 66 69 1.0 2.0 0.00 0.00 0.00 76 1011.7
20260831194419 66 311 1.0 2.0 0.00 0.00 0.00 75 1011.7
20260831194022 66 301 1.0 4.0 0.00 0.00 0.00 76 1011.6
20260831193923 66 295 1.0 4.0 0.00 0.00 0.00 76 1011.7
20260831193527 66 50 2.0 4.0 0.00 0.00 0.00 75 1011.6
20260831193426 66 269 1.0 3.0 0.00 0.00 0.00 75 1011.6
20260831193029 66 61 1.0 6.0 0.00 0.00 0.00 75 1011.7
20260831192929 66 262 2.0 6.0 0.00 0.00 0.00 73 1011.6
20260831192531 66 243 1.0 6.0 0.00 0.00 0.00 76 1011.6
20260831192413 66 290 1.0 6.0 0.00 0.00 0.00 75 1011.5
20260831192016 67 236 1.0 4.0 0.00 0.00 0.00 73 1011.4
20260831191917 67 275 2.0 4.0 0.00 0.00 0.00 73 1011.4
20260831191521 67 236 1.0 3.0 0.00 0.00 0.00 72 1011.4
20260831191420 67 259 1.0 3.0 0.00 0.00 0.00 72 1011.4
20260831191020 67 307 1.0 3.0 0.00 0.00 0.00 71 1011.2
20260831190922 67 222 1.0 3.0 0.00 0.00 0.00 73 1011.3
20260831190527 67 286 1.0 3.0 0.00 0.00 0.00 70 1011.3
20260831190427 68 253 1.0 3.0 0.00 0.00 0.00 71 1011.3
20260831190016 68 290 1.0 2.0 0.00 0.00 0.00 68 1011.4
20260831185918 68 276 1.0 2.0 0.00 0.00 0.00 69 1011.5
20260831185516 67 286 1.0 4.0 0.00 0.00 0.00 71 1011.6
20260831185423 67 311 1.0 4.0 0.00 0.00 0.00 69 1011.6
20260831185020 67 294 1.0 4.0 0.00 0.00 0.00 72 1011.5
20260831184919 67 262 1.0 4.0 0.00 0.00 0.00 70 1011.4
20260831184520 67 131 1.0 3.0 0.00 0.00 0.00 71 1011.6
20260831184419 67 233 1.0 3.0 0.00 0.00 0.00 71 1011.6
20260831184021 66 247 0.0 3.0 0.00 0.00 0.00 74 1011.6
20260831183920 66 259 0.0 3.0 0.00 0.00 0.00 75 1011.7
20260831183521 66 224 1.0 2.0 0.00 0.00 0.00 74 1011.7
20260831183420 65 237 0.0 2.0 0.00 0.00 0.00 74 1011.7
20260831183020 65 115 1.0 3.0 0.00 0.00 0.00 74 1011.6
20260831182920 65 295 1.0 4.0 0.00 0.00 0.00 75 1011.6
20260831182520 65 289 1.0 4.0 0.00 0.00 0.00 76 1011.7
20260831182422 64 204 1.0 4.0 0.00 0.00 0.00 76 1011.7
20260831182023 65 204 0.0 3.0 0.00 0.00 0.00 74 1011.8
20260831181924 65 245 1.0 3.0 0.00 0.00 0.00 73 1011.7
20260831181524 67 297 1.0 3.0 0.00 0.00 0.00 70 1011.8
20260831181426 67 167 1.0 3.0 0.00 0.00 0.00 71 1011.7
20260831181027 68 300 1.0 3.0 0.00 0.00 0.00 68 1011.7
20260831180928 68 293 1.0 3.0 0.00 0.00 0.00 68 1011.7
20260831180532 68 102 0.0 2.0 0.00 0.00 0.00 70 1011.7
20260831180430 67 153 1.0 2.0 0.00 0.00 0.00 68 1011.7
20260831180023 67 204 1.0 3.0 0.00 0.00 0.00 69 1011.6
20260831175923 67 285 1.0 3.0 0.00 0.00 0.00 72 1011.5
20260831175522 66 22 1.0 3.0 0.00 0.00 0.00 71 1011.4
20260831175427 66 263 1.0 3.0 0.00 0.00 0.00 71 1011.4
20260831175024 66 277 1.0 2.0 0.00 0.00 0.00 71 1011.6
20260831174928 66 293 0.0 3.0 0.00 0.00 0.00 71 1011.7
20260831174526 65 266 1.0 4.0 0.00 0.00 0.00 72 1011.7
20260831174428 65 302 0.0 4.0 0.00 0.00 0.00 75 1011.7
20260831174030 65 264 2.0 4.0 0.00 0.00 0.00 73 1011.7
20260831173931 65 307 1.0 4.0 0.00 0.00 0.00 74 1011.7
20260831173534 65 296 2.0 4.0 0.00 0.00 0.00 73 1011.5
20260831173413 65 293 2.0 4.0 0.00 0.00 0.00 72 1011.6
20260831173014 65 275 2.0 4.0 0.00 0.00 0.00 71 1011.7
20260831172916 65 281 1.0 3.0 0.00 0.00 0.00 73 1011.6
20260831172520 65 267 1.0 3.0 0.00 0.00 0.00 73 1011.6
20260831172421 65 278 1.0 2.0 0.00 0.00 0.00 75 1011.6
20260831172026 64 222 1.0 3.0 0.00 0.00 0.00 77 1011.6
20260831171928 64 259 1.0 3.0 0.00 0.00 0.00 77 1011.6
20260831171530 64 310 1.0 3.0 0.00 0.00 0.00 78 1011.5
20260831171412 64 291 1.0 3.0 0.00 0.00 0.00 78 1011.5
20260831171016 64 271 0.0 1.0 0.00 0.00 0.00 84 1011.5
20260831170917 64 271 0.0 1.0 0.00 0.00 0.00 84 1011.6
20260831170522 63 271 0.0 1.0 0.00 0.00 0.00 83 1011.5
20260831170420 63 271 0.0 1.0 0.00 0.00 0.00 83 1011.4
20260831170029 62 271 0.0 1.0 0.00 0.00 0.00 89 1011.4
20260831165929 62 271 0.0 1.0 0.00 0.00 0.00 90 1011.6
20260831165532 61 270 0.0 1.0 0.00 0.00 0.00 92 1011.3
20260831165414 61 270 0.0 1.0 0.00 0.00 0.00 93 1011.3
20260831165013 60 270 0.0 1.0 0.00 0.00 0.00 96 1011.4
20260831164913 60 270 0.0 1.0 0.00 0.00 0.00 95 1011.4
20260831164514 60 264 0.0 1.0 0.00 0.00 0.00 95 1011.4
20260831164436 60 258 0.0 1.0 0.00 0.00 0.00 95 1011.4
20260831164033 59 6 0.0 0.0 0.00 0.00 0.00 97 1011.4
20260831163917 59 6 0.0 0.0 0.00 0.00 0.00 97 1011.4
20260831163518 59 5 0.0 0.0 0.00 0.00 0.00 97 1011.4
20260831163422 58 5 0.0 0.0 0.00 0.00 0.00 97 1011.4
20260831163020 57 6 0.0 0.0 0.00 0.00 0.00 97 1011.4
20260831162920 57 5 0.0 0.0 0.00 0.00 0.00 97 1011.4
20260831162520 56 5 0.0 0.0 0.00 0.00 0.00 97 1011.5
20260831162418 56 5 0.0 0.0 0.00 0.00 0.00 97 1011.6
20260831162022 56 5 0.0 0.0 0.00 0.00 0.00 97 1011.6
20260831161925 56 5 0.0 0.0 0.00 0.00 0.00 97 1011.6
20260831161528 55 6 0.0 0.0 0.00 0.00 0.00 97 1011.7
20260831161428 55 6 0.0 0.0 0.00 0.00 0.00 97 1011.7
20260831161030 55 5 0.0 0.0 0.00 0.00 0.00 97 1011.7
20260831160931 54 6 0.0 0.0 0.00 0.00 0.00 97 1011.7
20260831160516 54 5 0.0 0.0 0.00 0.00 0.00 97 1011.8
20260831160416 54 5 0.0 0.0 0.00 0.00 0.00 97 1011.8
20260831160026 54 5 0.0 0.0 0.00 0.00 0.00 97 1011.8
20260831155928 54 5 0.0 0.0 0.00 0.00 0.00 97 1011.8
20260831155531 53 5 0.0 0.0 0.00 0.00 0.00 97 1011.8
20260831155415 53 6 0.0 0.0 0.00 0.00 0.00 97 1011.9
20260831155020 53 6 0.0 0.0 0.00 0.00 0.00 97 1011.9
20260831154924 53 5 0.0 0.0 0.00 0.00 0.00 97 1011.9
20260831154527 53 5 0.0 0.0 0.00 0.00 0.00 97 1011.9
20260831154431 53 5 0.0 0.0 0.00 0.00 0.00 96 1011.9
20260831154034 53 6 0.0 0.0 0.00 0.00 0.00 96 1011.9
20260831153915 52 5 0.0 0.0 0.00 0.00 0.00 96 1011.9
20260831153522 52 5 0.0 0.0 0.00 0.00 0.00 96 1011.9
20260831153423 52 5 0.0 0.0 0.00 0.00 0.00 96 1012.0
20260831153025 52 6 0.0 0.0 0.00 0.00 0.00 96 1012.0
20260831152913 52 5 0.0 0.0 0.00 0.00 0.00 96 1012.0
20260831152515 52 5 0.0 0.0 0.00 0.00 0.00 96 1012.1
20260831152419 52 5 0.0 0.0 0.00 0.00 0.00 96 1012.1
20260831152022 51 5 0.0 0.0 0.00 0.00 0.00 96 1012.0
20260831151929 51 5 0.0 0.0 0.00 0.00 0.00 96 1012.1
20260831151530 51 5 0.0 0.0 0.00 0.00 0.00 96 1012.1
20260831151416 51 6 0.0 0.0 0.00 0.00 0.00 96 1012.0
20260831151016 51 6 0.0 0.0 0.00 0.00 0.00 96 1012.0
20260831150919 51 6 0.0 0.0 0.00 0.00 0.00 96 1012.0
20260831150524 51 5 0.0 0.0 0.00 0.00 0.00 96 1012.0
20260831150426 51 5 0.0 0.0 0.00 0.00 0.00 96 1012.0
20260831150018 50 5 0.0 0.0 0.00 0.00 0.00 96 1012.0
20260831145918 50 5 0.0 0.0 0.00 0.00 0.00 96 1011.9
20260831145524 50 5 0.0 0.0 0.00 0.00 0.00 96 1012.0
20260831145426 50 5 0.0 0.0 0.00 0.00 0.00 96 1012.0
20260831145032 50 5 0.0 0.0 0.00 0.00 0.00 96 1011.9
20260831144915 50 5 0.0 0.0 0.00 0.00 0.00 96 1011.9
20260831144520 50 5 0.0 0.0 0.00 0.00 0.00 96 1011.9
20260831144421 50 5 0.0 0.0 0.00 0.00 0.00 96 1011.9
20260831144024 50 5 0.0 0.0 0.00 0.00 0.00 95 1011.9
20260831143925 50 6 0.0 0.0 0.00 0.00 0.00 95 1011.9
20260831143530 50 5 0.0 0.0 0.00 0.00 0.00 96 1011.8
20260831143427 50 5 0.0 0.0 0.00 0.00 0.00 96 1011.8
20260831143030 50 5 0.0 0.0 0.00 0.00 0.00 96 1011.9
20260831142913 50 5 0.0 0.0 0.00 0.00 0.00 96 1011.8
20260831142519 50 6 0.0 0.0 0.00 0.00 0.00 96 1011.8
20260831142419 50 5 0.0 0.0 0.00 0.00 0.00 95 1011.8
20260831142024 50 5 0.0 0.0 0.00 0.00 0.00 95 1011.7
20260831141927 50 5 0.0 0.0 0.00 0.00 0.00 95 1011.7
20260831141531 50 6 0.0 0.0 0.00 0.00 0.00 95 1011.7
20260831141415 51 6 0.0 0.0 0.00 0.00 0.00 95 1011.7
20260831141020 51 5 0.0 0.0 0.00 0.00 0.00 95 1011.6
20260831140920 51 5 0.0 0.0 0.00 0.00 0.00 95 1011.6
20260831140527 51 5 0.0 0.0 0.00 0.00 0.00 95 1011.6
20260831140426 51 5 0.0 0.0 0.00 0.00 0.00 95 1011.6
20260831140020 51 5 0.0 0.0 0.00 0.00 0.00 96 1011.5
20260831135924 51 6 0.0 0.0 0.00 0.00 0.00 96 1011.6
20260831135525 51 6 0.0 0.0 0.00 0.00 0.00 96 1011.4
20260831135431 51 5 0.0 0.0 0.00 0.00 0.00 96 1011.5
20260831135016 51 6 0.0 0.0 0.00 0.00 0.00 96 1011.5
20260831134923 51 6 0.0 0.0 0.00 0.00 0.00 96 1011.5
20260831134525 51 5 0.0 0.0 0.00 0.00 0.00 96 1011.6
20260831134426 51 5 0.0 0.0 0.00 0.00 0.00 96 1011.6
20260831134030 51 6 0.0 0.0 0.00 0.00 0.00 96 1011.6
20260831133930 51 6 0.0 0.0 0.00 0.00 0.00 96 1011.6
20260831133516 50 6 0.0 0.0 0.00 0.00 0.00 95 1011.6
20260831133415 50 6 0.0 0.0 0.00 0.00 0.00 95 1011.5
20260831133020 50 6 0.0 0.0 0.00 0.00 0.00 95 1011.6
20260831132918 50 6 0.0 0.0 0.00 0.00 0.00 95 1011.6
20260831132521 51 6 0.0 0.0 0.00 0.00 0.00 96 1011.6
20260831132421 50 5 0.0 0.0 0.00 0.00 0.00 96 1011.6
20260831132023 50 5 0.0 0.0 0.00 0.00 0.00 95 1011.7
20260831131925 50 6 0.0 0.0 0.00 0.00 0.00 95 1011.7
20260831131530 50 6 0.0 0.0 0.00 0.00 0.00 95 1011.8
20260831131431 50 6 0.0 0.0 0.00 0.00 0.00 95 1011.7
20260831131015 50 6 0.0 0.0 0.00 0.00 0.00 95 1011.8
20260831130918 50 6 0.0 0.0 0.00 0.00 0.00 95 1011.8
20260831130524 50 6 0.0 0.0 0.00 0.00 0.00 95 1011.8
20260831130426 50 5 0.0 0.0 0.00 0.00 0.00 95 1011.8
20260831130021 50 6 0.0 0.0 0.00 0.00 0.00 95 1011.9
20260831125920 50 6 0.0 0.0 0.00 0.00 0.00 95 1011.8
20260831125523 51 6 0.0 0.0 0.00 0.00 0.00 95 1011.9
20260831125423 51 6 0.0 0.0 0.00 0.00 0.00 95 1011.8
20260831125028 51 6 0.0 0.0 0.00 0.00 0.00 95 1011.8
20260831124927 51 6 0.0 0.0 0.00 0.00 0.00 95 1011.8
20260831124528 51 5 0.0 0.0 0.00 0.00 0.00 95 1011.8
20260831124413 51 6 0.0 0.0 0.00 0.00 0.00 95 1011.8
20260831124014 51 6 0.0 0.0 0.00 0.00 0.00 95 1011.9
20260831123919 51 5 0.0 0.0 0.00 0.00 0.00 95 1011.9
20260831123522 51 6 0.0 0.0 0.00 0.00 0.00 95 1011.9
20260831123425 51 6 0.0 0.0 0.00 0.00 0.00 95 1012.0
20260831123027 51 5 0.0 0.0 0.00 0.00 0.00 95 1011.9
20260831122915 52 5 0.0 0.0 0.00 0.00 0.00 95 1012.0
20260831122516 52 5 0.0 0.0 0.00 0.00 0.00 95 1012.0
20260831122415 52 6 0.0 0.0 0.00 0.00 0.00 95 1012.0
20260831122020 52 6 0.0 0.0 0.00 0.00 0.00 95 1012.0
20260831121923 52 6 0.0 0.0 0.00 0.00 0.00 95 1012.1
20260831121526 52 6 0.0 0.0 0.00 0.00 0.00 95 1012.1
20260831121428 52 5 0.0 0.0 0.00 0.00 0.00 95 1012.1
20260831121013 52 5 0.0 0.0 0.00 0.00 0.00 95 1012.2
20260831120914 52 5 0.0 0.0 0.00 0.00 0.00 95 1012.2
20260831120522 52 5 0.0 0.0 0.00 0.00 0.00 95 1012.2
20260831120424 52 5 0.0 0.0 0.00 0.00 0.00 95 1012.2
20260831120021 52 5 0.0 0.0 0.00 0.00 0.00 96 1012.2
20260831115923 52 5 0.0 0.0 0.00 0.00 0.00 96 1012.1
20260831115525 52 5 0.0 0.0 0.00 0.00 0.00 95 1012.2
20260831115426 52 5 0.0 0.0 0.00 0.00 0.00 95 1012.2
20260831115030 52 5 0.0 0.0 0.00 0.00 0.00 95 1012.3
20260831114912 52 5 0.0 0.0 0.00 0.00 0.00 95 1012.3
20260831114516 52 5 0.0 0.0 0.00 0.00 0.00 95 1012.3
20260831114417 52 5 0.0 0.0 0.00 0.00 0.00 95 1012.2
20260831114021 52 5 0.0 0.0 0.00 0.00 0.00 96 1012.4
20260831113923 52 5 0.0 0.0 0.00 0.00 0.00 96 1012.4
20260831113530 52 5 0.0 0.0 0.00 0.00 0.00 96 1012.3
20260831113430 52 5 0.0 0.0 0.00 0.00 0.00 96 1012.3
20260831113032 51 5 0.0 0.0 0.00 0.00 0.00 95 1012.3
20260831112914 51 5 0.0 0.0 0.00 0.00 0.00 95 1012.3
20260831112519 51 5 0.0 0.0 0.00 0.00 0.00 95 1012.3
20260831112421 51 5 0.0 0.0 0.00 0.00 0.00 95 1012.3
20260831112024 51 5 0.0 0.0 0.00 0.00 0.00 95 1012.4
20260831111928 51 5 0.0 0.0 0.00 0.00 0.00 95 1012.4
20260831111513 51 5 0.0 0.0 0.00 0.00 0.00 95 1012.5
20260831111415 51 5 0.0 0.0 0.00 0.00 0.00 95 1012.5
20260831111016 51 5 0.0 0.0 0.00 0.00 0.00 95 1012.4
20260831110922 51 5 0.0 0.0 0.00 0.00 0.00 95 1012.4
20260831110524 51 5 0.0 0.0 0.00 0.00 0.00 95 1012.5
20260831110429 51 5 0.0 0.0 0.00 0.00 0.00 95 1012.4
20260831110021 51 5 0.0 0.0 0.00 0.00 0.00 95 1012.5
20260831105924 51 5 0.0 0.0 0.00 0.00 0.00 95 1012.5
20260831105531 51 5 0.0 0.0 0.00 0.00 0.00 95 1012.5
20260831105413 51 5 0.0 0.0 0.00 0.00 0.00 95 1012.5
20260831105020 51 5 0.0 0.0 0.00 0.00 0.00 95 1012.5
20260831104921 51 5 0.0 0.0 0.00 0.00 0.00 95 1012.5
20260831104525 51 5 0.0 0.0 0.00 0.00 0.00 95 1012.5
20260831104426 51 5 0.0 0.0 0.00 0.00 0.00 95 1012.5
20260831104030 51 5 0.0 0.0 0.00 0.00 0.00 95 1012.5
20260831103913 51 5 0.0 0.0 0.00 0.00 0.00 95 1012.5
20260831103519 51 5 0.0 0.0 0.00 0.00 0.00 94 1012.5
20260831103418 51 5 0.0 0.0 0.00 0.00 0.00 94 1012.4
20260831103023 51 5 0.0 0.0 0.00 0.00 0.00 95 1012.4
20260831102926 51 5 0.0 0.0 0.00 0.00 0.00 95 1012.5
20260831102532 51 5 0.0 0.0 0.00 0.00 0.00 95 1012.4
20260831102413 51 5 0.0 0.0 0.00 0.00 0.00 94 1012.5
20260831102020 51 5 0.0 0.0 0.00 0.00 0.00 94 1012.5
20260831101921 51 5 0.0 0.0 0.00 0.00 0.00 94 1012.5
20260831101527 51 5 0.0 0.0 0.00 0.00 0.00 94 1012.5
20260831101430 51 5 0.0 0.0 0.00 0.00 0.00 94 1012.5
20260831101016 51 5 0.0 0.0 0.00 0.00 0.00 94 1012.6
20260831100920 51 5 0.0 0.0 0.00 0.00 0.00 94 1012.6
20260831100527 52 5 0.0 0.0 0.00 0.00 0.00 94 1012.7
20260831100430 52 5 0.0 0.0 0.00 0.00 0.00 94 1012.6
20260831100025 52 5 0.0 0.0 0.00 0.00 0.00 94 1012.7
20260831095925 52 5 0.0 0.0 0.00 0.00 0.00 94 1012.7
20260831095527 52 5 0.0 0.0 0.00 0.00 0.00 94 1012.8
20260831095412 52 5 0.0 0.0 0.00 0.00 0.00 94 1012.7
20260831095019 52 5 0.0 0.0 0.00 0.00 0.00 95 1012.8
20260831094918 52 5 0.0 0.0 0.00 0.00 0.00 95 1012.8
20260831094520 52 5 0.0 0.0 0.00 0.00 0.00 94 1012.9
20260831094425 52 5 0.0 0.0 0.00 0.00 0.00 94 1012.9
20260831094024 52 5 0.0 0.0 0.00 0.00 0.00 95 1012.9
20260831093929 52 5 0.0 0.0 0.00 0.00 0.00 95 1012.9
20260831093530 52 5 0.0 0.0 0.00 0.00 0.00 95 1013.0
20260831093415 52 5 0.0 0.0 0.00 0.00 0.00 95 1013.0
20260831093017 52 5 0.0 0.0 0.00 0.00 0.00 94 1013.1
20260831092916 52 5 0.0 0.0 0.00 0.00 0.00 94 1013.1
20260831092519 52 5 0.0 0.0 0.00 0.00 0.00 94 1013.2
20260831092418 52 5 0.0 0.0 0.00 0.00 0.00 94 1013.1
20260831092022 52 5 0.0 0.0 0.00 0.00 0.00 94 1013.1
20260831091924 52 5 0.0 0.0 0.00 0.00 0.00 94 1013.1
20260831091529 52 5 0.0 0.0 0.00 0.00 0.00 94 1013.2
20260831091412 52 5 0.0 0.0 0.00 0.00 0.00 94 1013.2
20260831091018 52 5 0.0 0.0 0.00 0.00 0.00 94 1013.3
20260831090919 52 5 0.0 0.0 0.00 0.00 0.00 94 1013.3
20260831090525 52 5 0.0 0.0 0.00 0.00 0.00 94 1013.3
20260831090427 52 5 0.0 0.0 0.00 0.00 0.00 94 1013.3
20260831090021 52 5 0.0 0.0 0.00 0.00 0.00 94 1013.3
20260831085922 52 5 0.0 0.0 0.00 0.00 0.00 94 1013.4
20260831085525 52 5 0.0 0.0 0.00 0.00 0.00 94 1013.3
20260831085427 52 5 0.0 0.0 0.00 0.00 0.00 94 1013.4
20260831085031 52 5 0.0 0.0 0.00 0.00 0.00 94 1013.5
20260831084914 52 5 0.0 0.0 0.00 0.00 0.00 94 1013.5
20260831084520 52 5 0.0 0.0 0.00 0.00 0.00 94 1013.5
20260831084421 52 5 0.0 0.0 0.00 0.00 0.00 94 1013.5
20260831084026 52 5 0.0 0.0 0.00 0.00 0.00 94 1013.5
20260831083928 52 5 0.0 0.0 0.00 0.00 0.00 94 1013.5
20260831083534 52 5 0.0 0.0 0.00 0.00 0.00 94 1013.5
20260831083415 52 5 0.0 0.0 0.00 0.00 0.00 94 1013.7
20260831083017 52 5 0.0 0.0 0.00 0.00 0.00 94 1013.8
20260831082918 52 5 0.0 0.0 0.00 0.00 0.00 94 1013.8
20260831082522 52 5 0.0 0.0 0.00 0.00 0.00 94 1013.8
20260831082422 52 5 0.0 0.0 0.00 0.00 0.00 94 1013.9
20260831082022 52 5 0.0 0.0 0.00 0.00 0.00 94 1013.8
20260831081926 52 5 0.0 0.0 0.00 0.00 0.00 94 1013.8
20260831081524 52 5 0.0 0.0 0.00 0.00 0.00 94 1013.9
20260831081431 52 5 0.0 0.0 0.00 0.00 0.00 94 1013.9
20260831081032 52 5 0.0 0.0 0.00 0.00 0.00 94 1014.0
20260831080917 52 5 0.0 0.0 0.00 0.00 0.00 94 1014.1
20260831080520 52 5 0.0 0.0 0.00 0.00 0.00 94 1014.1
20260831080419 52 5 0.0 0.0 0.00 0.00 0.00 94 1014.0
20260831080030 52 5 0.0 0.0 0.00 0.00 0.00 94 1014.1
20260831075932 52 5 0.0 0.0 0.00 0.00 0.00 94 1014.1
20260831075531 52 5 0.0 0.0 0.00 0.00 0.00 93 1014.1
20260831075431 52 5 0.0 0.0 0.00 0.00 0.00 93 1014.1
20260831075033 52 5 0.0 0.0 0.00 0.00 0.00 93 1014.2
20260831074914 52 5 0.0 0.0 0.00 0.00 0.00 93 1014.1
20260831074516 52 5 0.0 0.0 0.00 0.00 0.00 93 1014.1
20260831074419 52 5 0.0 0.0 0.00 0.00 0.00 93 1014.1
20260831074022 52 5 0.0 0.0 0.00 0.00 0.00 93 1014.2
20260831073923 52 5 0.0 0.0 0.00 0.00 0.00 93 1014.1
20260831073529 52 5 0.0 0.0 0.00 0.00 0.00 93 1014.2
20260831073429 52 5 0.0 0.0 0.00 0.00 0.00 93 1014.2
20260831073030 53 5 0.0 0.0 0.00 0.00 0.00 93 1014.2
20260831072931 53 5 0.0 0.0 0.00 0.00 0.00 93 1014.2
20260831072517 52 5 0.0 0.0 0.00 0.00 0.00 93 1014.3
20260831072419 52 5 0.0 0.0 0.00 0.00 0.00 93 1014.3
20260831072025 53 5 0.0 0.0 0.00 0.00 0.00 93 1014.4
20260831071927 53 5 0.0 0.0 0.00 0.00 0.00 93 1014.4
20260831071532 53 5 0.0 0.0 0.00 0.00 0.00 93 1014.4
20260831071414 53 5 0.0 0.0 0.00 0.00 0.00 93 1014.4
20260831071020 53 5 0.0 0.0 0.00 0.00 0.00 93 1014.4
20260831070922 53 5 0.0 0.0 0.00 0.00 0.00 93 1014.4
20260831070529 53 5 0.0 0.0 0.00 0.00 0.00 93 1014.5
20260831070428 53 5 0.0 0.0 0.00 0.00 0.00 93 1014.5
20260831070156 53 5 0.0 0.0 0.00 0.00 0.00 93 1014.5
20260831070113 53 5 0.0 0.0 0.00 0.00 0.00 93 1014.5
20260831070001 53 5 0.0 0.0 0.00 0.00 0.00 93 1014.6
20260831065918 53 5 0.0 0.0 0.00 0.00 0.00 93 1014.6
20260831065523 53 5 0.0 0.0 0.00 0.00 0.00 93 1014.5
20260831065425 53 5 0.0 0.0 0.00 0.00 0.00 92 1014.5
20260831065030 53 5 0.0 0.0 0.00 0.00 0.00 92 1014.6
20260831064930 53 5 0.0 0.0 0.00 0.00 0.00 92 1014.6
20260831064603 53 5 0.0 0.0 0.00 0.00 0.00 92 1014.6
20260831064521 53 5 0.0 0.0 0.00 0.00 0.00 92 1014.6
20260831064438 53 5 0.0 0.0 0.00 0.00 0.00 92 1014.6
20260831064147 53 5 0.0 0.0 0.00 0.00 0.00 92 1014.6
20260831064105 53 5 0.0 0.0 0.00 0.00 0.00 92 1014.6
20260831063925 53 5 0.0 0.0 0.00 0.00 0.00 92 1014.6
20260831063530 53 5 0.0 0.0 0.00 0.00 0.00 92 1014.6
20260831063431 53 5 0.0 0.0 0.00 0.00 0.00 92 1014.7
20260831063014 54 5 0.0 0.0 0.00 0.00 0.00 92 1014.7
20260831062915 54 5 0.0 0.0 0.00 0.00 0.00 92 1014.7
20260831062521 54 5 0.0 0.0 0.00 0.00 0.00 92 1014.8
20260831062423 54 5 0.0 0.0 0.00 0.00 0.00 92 1014.8
20260831062027 54 5 0.0 0.0 0.00 0.00 0.00 93 1014.8
20260831061925 54 5 0.0 0.0 0.00 0.00 0.00 93 1014.9
20260831061528 54 5 0.0 0.0 0.00 0.00 0.00 92 1014.9
20260831061432 54 5 0.0 0.0 0.00 0.00 0.00 92 1015.0
20260831061019 54 5 0.0 0.0 0.00 0.00 0.00 92 1015.0
20260831060920 54 5 0.0 0.0 0.00 0.00 0.00 92 1015.0
20260831060527 54 5 0.0 0.0 0.00 0.00 0.00 92 1015.0
20260831060428 54 5 0.0 0.0 0.00 0.00 0.00 92 1015.0
20260831060025 54 5 0.0 0.0 0.00 0.00 0.00 92 1015.0
20260831055926 54 5 0.0 0.0 0.00 0.00 0.00 92 1015.0
20260831055532 54 5 0.0 0.0 0.00 0.00 0.00 91 1015.0
20260831055414 54 5 0.0 0.0 0.00 0.00 0.00 91 1015.1
20260831055021 54 5 0.0 0.0 0.00 0.00 0.00 91 1015.1
20260831054922 54 5 0.0 0.0 0.00 0.00 0.00 91 1015.1
20260831054526 54 5 0.0 0.0 0.00 0.00 0.00 91 1015.1
20260831054426 54 5 0.0 0.0 0.00 0.00 0.00 91 1015.2
20260831054032 54 5 0.0 0.0 0.00 0.00 0.00 91 1015.3
20260831053914 54 5 0.0 0.0 0.00 0.00 0.00 91 1015.3
20260831053519 54 5 0.0 0.0 0.00 0.00 0.00 91 1015.3
20260831053418 54 5 0.0 0.0 0.00 0.00 0.00 91 1015.4
20260831053022 55 5 0.0 0.0 0.00 0.00 0.00 91 1015.4
20260831052923 55 5 0.0 0.0 0.00 0.00 0.00 91 1015.3
20260831052525 55 5 0.0 0.0 0.00 0.00 0.00 91 1015.3
20260831052430 55 5 0.0 0.0 0.00 0.00 0.00 91 1015.3
20260831052033 55 5 0.0 0.0 0.00 0.00 0.00 90 1015.3
20260831051919 55 5 0.0 0.0 0.00 0.00 0.00 90 1015.3
20260831051521 55 5 0.0 0.0 0.00 0.00 0.00 90 1015.3
20260831051423 55 5 0.0 0.0 0.00 0.00 0.00 90 1015.3
20260831051023 55 5 0.0 0.0 0.00 0.00 0.00 90 1015.3
20260831050924 55 5 0.0 0.0 0.00 0.00 0.00 90 1015.3
20260831050531 55 5 0.0 0.0 0.00 0.00 0.00 90 1015.2
20260831050430 55 5 0.0 0.0 0.00 0.00 0.00 90 1015.3
20260831050027 56 5 0.0 0.0 0.00 0.00 0.00 90 1015.3
20260831045929 56 5 0.0 0.0 0.00 0.00 0.00 90 1015.3
20260831045516 56 5 0.0 0.0 0.00 0.00 0.00 90 1015.3
20260831045417 56 5 0.0 0.0 0.00 0.00 0.00 90 1015.3